Simultaneous Nadir Overpasses (SNOs) Predictions

Prediction of SNOs between GOES-16 and METOP-B Satellite Orbit:

Table of predicted SNOs for the next 14.0 days since TLE Epoch: 5/11/2024
Index Date Time (GOES-16) GOES-16 Lat,Lon METOP-B Lat,Lon Distance(km) Time Diff (sec)
1 05/11/2024 14:33:23 0.06, -75.20 0.64, -77.81 297.34 80
2 05/12/2024 14:15:22 0.05, -75.21 -0.47, -72.81 272.27 80
3 05/14/2024 02:34:19 -0.05, -75.21 -0.56, -77.41 250.84 80
4 05/15/2024 02:10:58 -0.04, -75.22 0.56, -72.41 319.41 80
5 05/16/2024 14:29:46 0.04, -75.24 0.44, -76.98 198.35 80
6 05/17/2024 14:11:44 0.04, -75.25 -0.69, -71.98 372.58 80
7 05/19/2024 02:30:42 -0.04, -75.27 -0.30, -76.58 148.60 80
8 05/20/2024 02:07:19 -0.04, -75.29 0.79, -71.58 422.71 80
9 05/21/2024 14:26:07 0.03, -75.31 0.23, -76.13 93.78 80
10 05/22/2024 14:08:05 0.03, -75.33 -0.93, -71.14 477.77 80
11 05/24/2024 02:27:01 -0.03, -75.36 -0.09, -75.74 42.75 80
